[[{"header":{"parameterUnit":"m.s-1","parameterCategory":1,"la1":30.2991,"la2":30.254,"lo1":-89.0895,"lo2":-89.0444,"dy":0.0017,"dx":0.0017,"nx":28,"ny":28,"refTime":"2024-07-17T03:00:00:Z","depth":0,"parameterNumber":2,"parameterNumberName":"U-component_of_WINDS"},"data":[0,0,0,0,0,0,0,0,0,0,0,0,0,0,0,0,0,0,0,0,0,0,0,0,0,0,0,0,0,0,0,0,0,0,0,0,0,0,0,0,0,0,0,0,0,0,0,0,0,0,0,0,0,0,0,0,0,0,1.1682,1.1684,0,1.1874,1.1876,1.1878,1.1974,1.1974,1.1974,1.1974,1.2171,1.2176,1.2181,0,0,0,0,0,0,0,0,0,0,0,0,0,1.1399,1.1404,1.1682,1.1685,1.1687,1.1873,1.1876,1.1879,1.1974,1.1974,1.1974,1.1974,1.2169,1.2175,1.2182,0,0,0,0,0,0,0,0,0,0,0,0,0,1.155,1.1406,1.1682,1.1757,1.1766,1.1873,1.1876,1.1879,1.1974,1.1974,1.1974,1.1974,1.2167,1.2175,1.2183,1.223,0,0,1.2207,1.221,0,0,0,0,0,0,0,0,1.1541,1.156,1.1744,1.1752,1.1762,1.19,1.1849,1.1997,1.1974,1.1895,1.1974,1.1974,1.2081,1.2096,1.2132,1.2239,1.2248,1.2207,1.2212,1.2215,1.2218,0,0,0,0,0,0,0,1.153,1.1552,1.1758,1.1746,1.1757,1.1781,1.1803,1.1877,1.1985,1.1902,1.1909,1.193,1.2086,1.2124,1.2137,1.225,1.2207,1.2214,1.2219,1.2222,1.2406,1.2406,0,0,0,0,0,0,1.1508,1.1543,1.1752,1.1764,1.1649,1.1786,1.181,1.1856,1.1985,1.2004,1.193,1.1934,1.2111,1.2128,1.2144,1.2208,1.2215,1.2223,1.2227,1.2406,1.2406,1.2406,0,0,0,0,0,0,1.1501,1.1526,1.1744,1.1656,1.1685,1.1791,1.1841,1.1859,1.1898,1.2006,1.2026,1.1949,1.2111,1.2133,1.2208,1.2216,1.2226,1.2233,1.2405,1.2406,1.2406,1.2335,0,0,0,0,0,0,1.1493,1.1523,1.1542,1.1655,1.1689,1.1804,1.1842,1.1863,1.1911,1.1918,1.2029,1.2048,1.2113,1.2196,1.2215,1.2227,1.2239,1.2405,1.2406,1.2406,1.2338,1.2333,1.233,0,0,0,0,0,1.1482,1.1514,1.1542,1.1567,1.1715,1.1804,1.1824,1.1898,1.1911,1.1931,1.2001,1.2044,1.2212,1.2202,1.2226,1.224,1.2405,1.2406,1.2406,1.2339,1.2334,1.233,0,0,0,0,0,0,1.14,1.1531,1.1563,1.1633,1.1706,1.182,1.1848,1.189,1.1963,1.1966,1.2055,1.208,1.2146,1.2201,1.2188,1.2292,1.2313,1.2318,1.2254,1.225,1.2246,1.2232,1.2246,0,0,0,0,0,1.1389,1.1451,1.1562,1.1613,1.1648,1.1741,1.1783,1.1833,1.1914,1.1946,1.2021,1.2097,1.2168,1.2212,1.2282,1.2346,1.2371,1.2367,1.2363,1.2359,1.2363,1.24,1.2399,1.2408,1.2408,1.2408,0,0,1.1369,1.1448,1.1482,1.1598,1.1661,1.1723,1.1767,1.183,1.1877,1.1956,1.203,1.2088,1.2179,1.2248,1.2282,1.2296,1.2366,1.236,1.2356,1.2362,1.24,1.2399,1.2398,1.2408,1.2408,1.2408,0,0,1.1363,1.1429,1.1479,1.1541,1.1636,1.1698,1.1709,1.1817,1.1858,1.1935,1.1995,1.2051,1.217,1.2232,1.228,1.2296,1.2339,1.2317,1.2296,1.2332,1.2331,1.2331,1.2337,1.2338,1.232,1.232,1.232,0,1.1326,1.1421,1.1499,1.1559,1.1608,1.1681,1.1732,1.1789,1.1902,1.1934,1.1947,1.2097,1.2164,1.2248,1.2252,1.2288,1.2304,1.2305,1.2325,1.2325,1.2326,1.2333,1.2335,1.2316,1.2317,1.2317,1.2317,0,1.137,1.1435,1.1464,1.1571,1.1623,1.1678,1.1764,1.1808,1.1853,1.1913,1.199,1.2072,1.216,1.2184,1.223,1.2275,1.228,1.2308,1.233,1.2321,1.2328,1.2332,1.2312,1.2313,1.2314,1.2315,0,0,1.1319,1.1467,1.1476,1.1526,1.1635,1.1687,1.1745,1.1831,1.1866,1.1942,1.1992,1.2091,1.2117,1.217,1.2223,1.2254,1.2262,1.2278,1.2282,1.2272,1.2316,1.2294,1.2296,1.229,1.2291,1.2292,1.2308,0,1.1328,1.1436,1.1507,1.1586,1.1646,1.1717,1.1767,1.184,1.1897,1.1957,1.2021,1.2089,1.2118,1.2151,1.2185,1.2253,1.2272,1.2253,1.2339,1.2341,1.2313,1.23,1.2278,1.229,1.2312,1.2313,1.2313,0,1.1354,1.1427,1.1512,1.1614,1.1643,1.1687,1.1771,1.1827,1.1911,1.195,1.2009,1.2063,1.2127,1.2143,1.2233,1.2218,1.2258,1.2296,1.2299,1.231,1.2326,1.2311,1.2295,1.2297,1.2318,1.2318,1.2318,0,1.1307,1.1427,1.1493,1.1533,1.1654,1.1683,1.1736,1.1819,1.1866,1.194,1.1971,1.2051,1.2094,1.2155,1.2229,1.2234,1.231,1.2333,1.2345,1.2343,1.2358,1.2356,1.2348,1.2383,1.2383,1.2383,1.2383,0,1.1311,1.136,1.1473,1.1514,1.1571,1.1652,1.1706,1.1764,1.1838,1.1891,1.1957,1.2005,1.21,1.2159,1.2218,1.2282,1.2302,1.2335,1.235,1.233,1.2325,1.2357,1.2358,1.2383,1.2383,1.2383,1.2383,0,1.1268,1.1346,1.1423,1.1532,1.156,1.1597,1.169,1.1732,1.1793,1.1859,1.1879,1.1974,1.2048,1.2128,1.2229,1.2268,1.2329,1.2351,1.2301,1.2309,1.2317,1.2315,1.2329,1.2335,1.2364,1.2364,1.2363,0,1.1265,1.1305,1.1417,1.1457,1.1508,1.1571,1.1619,1.1701,1.1748,1.1846,1.1876,1.1954,1.2022,1.2136,1.2214,1.2292,1.2315,1.2315,1.2327,1.2305,1.2315,1.2312,1.2316,1.2311,1.231,1.2309,1.2309,0,1.1252,1.1288,1.1355,1.1434,1.149,1.1556,1.1626,1.1655,1.175,1.18,1.1876,1.1928,1.203,1.2107,1.2194,1.2248,1.2294,1.2304,1.2311,1.2291,1.226,1.2276,1.229,1.2304,1.2304,1.2305,1.2305,1.2305,1.1229,1.1267,1.1352,1.1424,1.1485,1.1548,1.1592,1.1658,1.1723,1.1812,1.1857,1.1932,1.2015,1.2136,1.2188,1.2248,1.2263,1.2272,1.2275,1.2276,1.2271,1.225,1.2264,1.2265,1.2265,1.2265,1.2265,0,1.1219,1.1277,1.1342,1.1437,1.1493,1.1531,1.161,1.1654,1.172,1.1793,1.1857,1.1944,1.2019,1.2103,1.2183,1.2215,1.2238,1.2233,1.2232,1.2243,1.2253,1.2239,1.2213,1.2213,1.2213,1.2213,1.2213,1.2213,1.122,1.1286,1.1332,1.1429,1.1487,1.1561,1.1603,1.1661,1.172,1.1814,1.1876,1.193,1.2008,1.2094,1.2164,1.2187,1.2213,1.2202,1.223,1.2238,1.2243,1.2247,1.2234,1.2207,1.2207,1.2216,1.2216,1.2216]},{"header":{"parameterUnit":"m.s-1","parameterCategory":1,"la1":30.2991,"la2":30.254,"lo1":-89.0895,"lo2":-89.0444,"dy":0.0017,"dx":0.0017,"nx":28,"ny":28,"refTime":"2024-07-17T03:00:00:Z","depth":0,"parameterNumber":3,"parameterNumberName":"V-component_of_WINDS"},"data":[0,0,0,0,0,0,0,0,0,0,0,0,0,0,0,0,0,0,0,0,0,0,0,0,0,0,0,0,0,0,0,0,0,0,0,0,0,0,0,0,0,0,0,0,0,0,0,0,0,0,0,0,0,0,0,0,0,0,4.3824,4.3824,0,4.3795,4.3795,4.3795,4.3777,4.3777,4.3776,4.3776,4.3743,4.3743,4.3742,0,0,0,0,0,0,0,0,0,0,0,0,0,4.3861,4.386,4.3824,4.3824,4.3824,4.3796,4.3795,4.3795,4.3777,4.3777,4.3776,4.3776,4.3744,4.3743,4.3742,0,0,0,0,0,0,0,0,0,0,0,0,0,4.384,4.386,4.3825,4.3811,4.381,4.3796,4.3795,4.3795,4.3777,4.3777,4.3776,4.3776,4.3744,4.3743,4.3742,4.3737,0,0,4.3738,4.3737,0,0,0,0,0,0,0,0,4.3841,4.3838,4.3814,4.3812,4.3811,4.379,4.3796,4.3775,4.3777,4.3789,4.3776,4.3776,4.3759,4.3756,4.3751,4.3736,4.3734,4.3738,4.3737,4.3737,4.3736,0,0,0,0,0,0,0,4.3842,4.3839,4.3813,4.3813,4.3811,4.3806,4.3803,4.3792,4.3775,4.3788,4.3787,4.3784,4.3758,4.3752,4.375,4.3734,4.3738,4.3737,4.3736,4.3736,4.3712,4.3712,0,0,0,0,0,0,4.3846,4.3841,4.3814,4.3812,4.3826,4.3805,4.3802,4.3796,4.3775,4.3772,4.3784,4.3783,4.3754,4.3751,4.3749,4.3742,4.3737,4.3736,4.3735,4.3712,4.3712,4.3712,0,0,0,0,0,0,4.3847,4.3844,4.3815,4.3826,4.3822,4.3805,4.3799,4.3796,4.379,4.3772,4.3768,4.3782,4.3754,4.3751,4.374,4.374,4.3735,4.3734,4.3712,4.3712,4.3712,4.3728,0,0,0,0,0,0,4.3848,4.3845,4.3844,4.3826,4.3821,4.3808,4.3799,4.3795,4.3789,4.3787,4.3769,4.3766,4.3754,4.3742,4.3739,4.3739,4.3733,4.3712,4.3712,4.3712,4.3727,4.3728,4.3729,0,0,0,0,0,4.385,4.3848,4.3844,4.384,4.382,4.3808,4.3805,4.3793,4.3789,4.3787,4.3775,4.3766,4.3741,4.3741,4.3738,4.3737,4.3712,4.3712,4.3712,4.3726,4.3728,4.3729,0,0,0,0,0,0,4.3865,4.3846,4.384,4.3834,4.3823,4.3805,4.3802,4.3795,4.3784,4.3783,4.3766,4.3762,4.3753,4.3744,4.3745,4.3731,4.3725,4.3725,4.3737,4.3739,4.374,4.3742,4.3732,0,0,0,0,0,4.3868,4.3861,4.3844,4.384,4.3835,4.382,4.3814,4.3805,4.3793,4.3788,4.3775,4.3762,4.3751,4.3744,4.3733,4.3726,4.3721,4.3723,4.3724,4.3725,4.3725,4.3719,4.372,4.3713,4.3713,4.3713,0,0,4.3873,4.3862,4.3858,4.3843,4.3833,4.3825,4.3816,4.3808,4.3801,4.3786,4.3776,4.3766,4.3751,4.3741,4.3737,4.3733,4.3726,4.3726,4.3727,4.3726,4.372,4.372,4.3721,4.3713,4.3713,4.3713,0,0,4.3879,4.387,4.3865,4.3856,4.3842,4.3832,4.3831,4.3815,4.3808,4.3797,4.3786,4.3777,4.3759,4.3748,4.3741,4.3742,4.3733,4.3739,4.3745,4.3739,4.374,4.374,4.374,4.374,4.3739,4.3739,4.3739,0,4.3887,4.3876,4.3863,4.3856,4.3849,4.3836,4.3831,4.3822,4.3805,4.38,4.3796,4.3773,4.3762,4.375,4.375,4.3745,4.3742,4.3741,4.3741,4.3741,4.3741,4.3741,4.3741,4.3739,4.3739,4.3739,4.3739,0,4.3886,4.3878,4.3876,4.3861,4.3853,4.3847,4.3833,4.3827,4.3819,4.3808,4.3797,4.3784,4.3769,4.3766,4.3757,4.3752,4.375,4.3744,4.3738,4.3743,4.3743,4.3742,4.374,4.374,4.374,4.374,0,0,4.39,4.3879,4.3878,4.3871,4.3854,4.3848,4.384,4.3827,4.3822,4.3811,4.3803,4.3788,4.3782,4.3774,4.3764,4.3759,4.376,4.3753,4.3753,4.3755,4.3753,4.3757,4.3757,4.3754,4.3754,4.3754,4.3754,0,4.3903,4.389,4.3879,4.387,4.3862,4.385,4.3843,4.3832,4.3822,4.3813,4.3801,4.3791,4.3785,4.3779,4.3774,4.3761,4.376,4.3761,4.3746,4.3746,4.375,4.3757,4.3762,4.3762,4.3754,4.3754,4.3754,0,4.3904,4.3895,4.3885,4.387,4.3866,4.386,4.3847,4.3839,4.3826,4.3819,4.3809,4.3799,4.3789,4.3784,4.377,4.3772,4.3765,4.3757,4.3757,4.3755,4.375,4.3755,4.3762,4.3762,4.3753,4.3753,4.3753,0,4.3915,4.3899,4.3892,4.3886,4.3868,4.3864,4.3856,4.3842,4.3835,4.3823,4.3818,4.3805,4.3798,4.3787,4.3773,4.3771,4.376,4.3754,4.3753,4.3754,4.3751,4.3751,4.3757,4.3748,4.3748,4.3748,4.3748,0,4.3919,4.3914,4.3896,4.3891,4.3885,4.3871,4.3864,4.3855,4.3843,4.3835,4.3823,4.3816,4.3798,4.3788,4.3777,4.3766,4.3763,4.3757,4.3754,4.3757,4.3758,4.3752,4.3752,4.3748,4.3748,4.3748,4.3748,0,4.393,4.3918,4.3909,4.3892,4.3888,4.3884,4.3869,4.3863,4.3853,4.3843,4.384,4.3823,4.3811,4.3796,4.3779,4.3771,4.3762,4.3757,4.3767,4.3765,4.3764,4.3765,4.3766,4.3766,4.3757,4.3757,4.3757,0,4.3933,4.3929,4.3912,4.3907,4.3899,4.3891,4.3884,4.387,4.3863,4.3847,4.3843,4.383,4.3819,4.38,4.3785,4.3771,4.3766,4.3768,4.3764,4.3768,4.3766,4.3766,4.3765,4.3769,4.3769,4.3769,4.3769,0,4.394,4.3934,4.3925,4.3914,4.3906,4.3896,4.3886,4.3882,4.3866,4.3858,4.3846,4.3838,4.3821,4.3807,4.3792,4.3782,4.3773,4.3771,4.377,4.3773,4.3779,4.3775,4.3769,4.3771,4.377,4.377,4.377,4.377,4.3946,4.3942,4.393,4.392,4.3911,4.3901,4.3895,4.3884,4.3875,4.386,4.3852,4.384,4.3826,4.3805,4.3795,4.3785,4.3781,4.378,4.3779,4.3779,4.378,4.3781,4.3782,4.3782,4.3782,4.3782,4.3781,0,4.3952,4.3944,4.3935,4.3921,4.3913,4.3906,4.3894,4.3888,4.3878,4.3866,4.3856,4.3841,4.3829,4.3813,4.3799,4.3794,4.3789,4.379,4.379,4.3788,4.3784,4.3786,4.3794,4.3794,4.3794,4.3794,4.3794,4.3794,4.3954,4.3946,4.3939,4.3926,4.3917,4.3906,4.39,4.389,4.3881,4.3866,4.3856,4.3847,4.3833,4.3818,4.3805,4.3801,4.3796,4.3799,4.3793,4.3789,4.3788,4.3787,4.3789,4.3798,4.3798,4.3797,4.3797,4.3798]}]]